Wind_Speed
22 23 24 22 22 20 18 19 18 17 16 15 15 14 15 15 15 15 16 15 16 16 15 14 11 9 8 8 10 12 14 15 13 12 10 8 7 6 7 7 8 9 9 10 9 8 8 9 9 9 9 9 10 10 9 8 7 6 5 5 7 8 8 8 8 8 7 5 5 5 5 5 4 4 4 4 5 4 4 6 7 7 8 9 9
23 23 23 23 23 21 19 18 17 17 16 14 13 13 13 13 12 13 13 12 11 11 12 12 11 10 10 10 11 13 14 13 12 11 10 10 9 9 10 11 11 11 11 12 11 10 10 9 9 9 8 9 10 10 9 9 8 6 6 6 6 7 7 7 7 7 7 7 7 7 6 7 7 7 6 6 6 5 6 7 8 9 9 10 11
25 24 24 25 24 22 20 18 17 15 14 13 13 13 12 11 10 11 11 11 11 12 11 10 10 11 11 11 12 11 10 11 12 12 12 12 12 13 14 14 13 13 13 13 12 12 11 10 10 9 8 9 9 9 9 9 8 7 7 7 6 7 7 7 7 7 7 8 8 8 8 8 8 8 8 8 7 7 7 7 9 9 10 11 13
25 24 23 25 24 22 21 18 16 14 13 14 14 14 13 11 10 10 9 10 10 10 8 7 8 9 9 9 9 9 9 11 13 14 14 14 14 14 15 15 15 14 14 14 12 12 12 11 11 10 9 9 9 8 9 9 9 9 8 7 7 7 7 8 8 8 8 8 8 8 9 9 9 9 9 8 8 8 7 7 9 10 11 12 13
24 24 24 24 23 22 20 18 16 15 15 14 14 14 12 9 7 6 6 6 7 7 7 6 5 6 7 9 7 8 10 12 13 13 14 14 14 14 14 15 15 15 15 15 13 13 12 12 11 11 11 10 10 9 10 10 10 10 9 8 8 7 8 8 8 7 8 8 8 9 10 10 10 10 9 8 8 8 8 8 9 10 12 13 12
23 24 24 23 22 20 18 16 16 17 16 15 14 13 11 7 5 4 4 3 3 5 7 7 6 7 7 10 11 13 12 13 14 15 15 15 14 14 13 14 15 15 15 14 14 13 12 11 12 12 12 11 10 10 10 10 10 11 10 9 8 8 9 8 8 8 8 8 9 9 10 10 10 10 10 9 8 9 9 9 8 9 11 11 10
23 24 25 24 22 18 15 16 17 18 17 17 15 13 11 9 6 4 3 3 4 5 6 7 7 9 11 15 19 18 15 16 17 17 16 14 14 13 12 12 13 13 13 13 13 13 12 11 12 12 12 11 10 9 10 10 11 11 10 10 10 10 10 9 8 9 9 9 9 9 9 9 9 11 10 9 9 10 10 10 9 9 9 8 9
24 24 24 23 20 16 14 16 17 18 18 17 15 13 12 10 6 3 3 4 5 5 6 8 11 13 16 19 20 19 18 19 18 17 15 13 13 13 13 12 11 11 11 12 12 13 13 12 12 12 12 11 10 9 9 10 10 10 10 10 11 11 11 10 10 10 10 9 8 8 8 8 9 10 10 9 9 10 10 10 9 9 9 9 9
24 23 22 21 19 16 16 17 18 18 18 17 15 13 11 8 4 3 2 4 5 4 6 10 13 14 14 15 17 18 19 20 18 16 14 13 13 13 13 13 11 10 10 10 10 12 13 13 12 12 12 12 11 11 10 10 11 11 11 11 11 12 12 13 12 11 11 10 9 9 9 9 10 11 11 10 11 11 10 10 10 9 10 10 9
23 20 19 19 18 18 18 18 18 18 17 17 17 14 11 8 6 4 3 4 4 4 5 6 7 8 9 12 15 17 18 17 16 14 13 12 12 12 13 13 12 11 10 9 8 9 10 12 12 12 12 13 13 13 13 12 12 11 11 11 11 11 12 13 13 13 13 11 10 10 10 10 11 11 11 11 12 11 10 10 10 9 9 9 9
19 17 17 17 17 19 18 17 16 16 14 15 17 15 12 10 8 6 5 4 4 4 4 3 4 6 9 11 13 14 15 14 13 12 12 12 11 11 12 12 13 12 11 10 8 7 7 9 10 11 12 12 13 13 14 14 14 12 12 12 11 11 12 13 13 13 13 12 12 12 12 12 12 11 10 10 12 12 10 10 10 9 8 8 8
15 15 15 15 17 18 17 16 15 12 9 10 14 14 12 11 10 8 7 6 5 4 3 3 4 5 6 8 10 10 11 11 11 12 12 11 10 10 11 12 12 12 12 12 11 9 8 7 8 10 10 11 11 12 13 14 14 13 13 12 12 12 12 12 13 13 14 13 13 12 12 12 12 11 9 10 11 10 10 10 10 9 7 7 7
15 15 15 17 18 17 16 16 15 13 12 11 13 14 12 12 11 10 9 8 7 5 4 4 4 2 1 4 7 9 10 11 12 12 13 12 11 11 12 13 13 13 12 13 13 12 12 11 11 11 11 11 11 11 12 12 13 13 12 12 12 13 12 12 12 12 13 13 13 12 11 11 11 10 9 10 9 8 9 11 11 8 6 6 7
16 16 16 17 17 16 15 15 16 18 18 15 12 13 13 13 14 13 12 11 10 8 7 6 7 6 3 5 6 8 10 11 12 13 13 13 12 12 13 14 15 14 13 13 13 13 14 15 15 15 15 14 13 12 12 12 11 11 11 11 11 11 11 11 10 11 11 12 12 11 11 11 10 9 10 10 8 7 9 11 10 8 7 7 7
16 17 16 16 17 16 15 15 18 20 18 14 13 13 14 14 14 13 13 13 12 11 10 9 9 8 6 5 5 6 7 8 8 9 10 10 10 11 11 12 13 14 14 13 12 13 14 16 17 17 17 17 16 15 13 12 12 11 11 10 10 10 10 10 10 10 10 10 11 11 11 11 11 11 11 11 10 9 9 9 8 6 7 7 6
15 15 15 17 18 17 15 15 18 20 16 14 14 13 14 14 14 13 13 13 14 13 12 10 8 8 6 4 4 5 7 8 7 7 8 8 8 9 9 8 8 10 11 11 11 11 12 13 14 15 16 17 17 16 15 14 13 12 12 11 11 11 10 10 10 10 10 10 10 11 11 11 11 11 12 12 12 11 9 7 6 6 6 7 7
15 14 14 17 18 16 14 12 14 18 18 16 14 13 14 14 14 13 13 14 15 14 12 10 8 6 6 6 6 6 9 11 11 11 11 10 10 9 9 8 7 6 7 7 8 8 8 9 10 11 13 15 16 17 16 16 15 14 13 13 13 12 12 12 11 11 11 11 11 11 11 11 11 11 11 12 12 11 9 9 8 7 7 8 8
15 15 15 16 15 15 14 11 10 16 19 16 13 13 16 16 12 11 12 13 13 12 10 10 9 8 8 8 8 8 10 12 15 16 16 15 13 12 11 10 8 7 6 5 6 6 7 8 8 9 9 11 14 15 16 16 15 15 15 14 13 13 13 12 12 12 12 12 12 12 12 12 12 11 12 13 12 12 11 11 11 10 9 10 10
15 15 15 15 15 14 15 14 13 18 21 19 15 13 14 14 11 8 11 12 11 10 9 9 8 8 9 9 10 11 12 13 15 17 17 16 14 14 13 11 9 8 7 7 7 7 8 8 9 9 9 10 11 12 14 14 15 15 15 14 14 13 12 12 12 12 12 12 12 12 13 13 12 13 13 13 13 13 14 13 13 12 12 13 12
20 19 18 18 17 17 17 17 17 18 18 18 16 14 14 13 10 9 12 12 12 12 11 10 9 8 9 10 11 13 14 14 14 14 13 13 14 14 13 11 10 9 9 8 8 8 8 9 9 10 10 11 11 12 13 13 14 15 15 15 14 13 13 12 12 12 12 12 12 13 13 13 13 14 14 14 15 15 15 15 15 14 14 14 15
24 22 20 20 22 24 24 22 20 20 18 16 17 18 17 15 12 12 13 13 12 12 12 11 9 8 8 10 12 13 13 13 13 13 13 14 14 14 13 12 11 11 10 10 9 8 9 9 10 10 10 11 12 12 13 13 13 13 13 14 13 13 13 13 12 12 12 12 13 13 14 14 15 15 16 16 17 17 17 17 17 17 15 15 15
25 23 21 21 24 28 28 27 26 25 23 21 19 19 19 16 14 14 14 15 14 13 13 11 10 9 9 10 12 12 11 12 13 14 15 15 15 14 14 13 13 12 12 10 9 9 9 10 10 11 11 11 11 12 12 12 12 12 12 12 12 12 12 13 13 13 12 13 13 14 14 15 16 17 18 18 18 17 17 18 19 18 16 15 14
26 24 23 22 22 23 25 25 26 26 24 23 22 23 22 18 16 15 15 15 15 14 15 14 13 13 12 13 13 12 12 13 14 15 16 16 16 16 16 16 15 14 12 11 10 9 10 10 10 10 10 11 12 12 12 12 11 11 11 11 12 12 12 13 13 13 14 14 15 15 16 17 17 18 18 18 17 17 17 18 18 18 16 14 13
23 23 23 22 21 22 23 23 24 25 25 24 23 24 22 18 16 16 15 15 15 15 16 16 16 16 15 16 16 15 14 15 16 17 17 18 18 18 18 17 16 15 13 12 11 10 11 10 10 10 10 11 12 12 13 13 12 12 12 12 12 12 12 13 13 14 15 16 17 17 18 18 18 18 18 17 17 16 16 17 18 18 17 15 14
20 20 22 22 20 19 21 24 24 23 22 22 22 21 19 17 16 16 16 16 15 15 16 17 17 17 17 18 17 16 16 17 18 18 19 19 19 18 17 16 15 15 14 13 12 12 12 12 12 12 12 13 13 13 14 14 14 15 15 14 14 14 14 14 14 15 15 16 17 18 19 19 19 19 19 19 19 17 17 18 18 19 18 18 18
21 22 22 22 19 17 18 18 19 17 16 17 18 18 17 16 16 17 17 16 15 16 18 20 19 17 18 19 18 18 18 18 19 19 19 19 18 17 16 16 16 15 14 13 13 13 13 13 14 14 14 15 14 14 15 15 15 16 16 16 16 16 16 16 17 18 18 18 18 18 19 19 19 19 20 21 21 20 20 20 20 20 20 22 23
22 19 18 16 15 14 13 14 15 13 15 16 17 17 16 16 17 16 15 15 15 17 19 22 20 18 20 20 19 19 20 19 19 19 19 19 18 17 16 16 16 15 14 14 14 14 15 15 16 16 16 16 15 15 15 15 16 16 17 17 18 18 19 19 19 20 21 21 20 19 19 19 19 20 21 22 23 22 22 22 22 21 21 23 26
24 22 20 19 17 16 15 15 14 13 15 18 18 18 17 17 17 16 16 16 15 15 16 19 19 18 20 20 19 20 21 20 19 19 19 19 18 17 15 15 16 16 15 15 15 15 16 17 17 17 17 17 17 16 17 17 18 18 19 20 20 21 22 22 22 21 22 22 21 20 20 20 21 21 22 23 24 24 25 24 24 23 23 24 27
27 27 27 27 27 26 25 24 24 22 22 24 22 21 21 20 18 17 17 17 16 15 14 18 20 19 20 20 20 21 20 20 19 19 18 17 18 17 16 15 16 17 17 17 17 17 18 19 19 19 19 19 18 18 19 20 21 22 22 23 23 24 24 24 24 23 22 21 21 21 22 22 23 24 24 24 25 26 27 27 27 27 26 26 27
26 27 28 28 29 29 29 29 29 30 29 27 26 25 24 22 20 20 18 17 17 16 15 18 22 22 20 19 19 19 19 18 19 19 18 17 18 19 18 18 18 19 19 19 19 20 20 21 21 21 21 20 20 20 20 21 23 24 25 25 25 26 26 27 26 26 24 23 22 23 23 24 25 25 26 27 28 28 29 30 30 30 30 29 28
25 26 28 28 29 29 28 29 29 29 29 28 27 25 22 21 22 21 19 18 18 18 18 21 23 21 19 17 16 18 19 19 19 20 19 19 20 20 21 21 21 20 20 20 21 21 21 22 22 22 22 21 21 21 21 22 23 25 27 28 28 29 29 29 29 28 28 27 27 26 26 26 26 26 27 28 29 30 30 31 32 32 32 32 33
24 25 27 28 29 29 29 29 29 28 27 26 25 24 22 21 21 20 20 20 20 20 21 23 24 22 21 19 18 20 20 20 20 21 21 21 21 21 21 21 21 21 21 21 22 22 22 22 23 23 22 22 22 22 23 24 25 26 28 29 30 31 32 33 32 31 31 31 31 31 30 30 29 29 29 29 30 30 31 32 33 34 34 35 36
24 25 27 29 30 30 30 29 28 27 26 25 25 24 24 23 23 22 22 22 22 21 23 25 27 26 26 23 21 20 21 22 23 24 24 24 24 23 22 22 22 22 22 23 23 23 24 25 25 25 25 24 24 25 26 27 27 29 30 30 30 31 32 33 33 33 33 34 34 33 33 33 33 33 34 34 33 32 33 34 35 36 36 37 37
24 26 28 30 31 31 29 29 28 27 27 27 27 26 26 26 26 25 24 24 24 24 25 27 27 27 26 25 24 24 25 26 27 27 27 27 27 26 25 25 25 25 25 26 26 27 27 27 28 29 29 28 28 28 29 29 29 31 32 33 33 32 31 31 32 33 34 33 33 32 32 33 34 35 36 37 37 36 36 36 36 37 39 38 37
25 27 29 31 32 31 31 31 31 31 31 31 31 31 30 29 28 27 27 27 27 28 29 29 30 29 29 29 29 29 30 31 31 30 30 30 30 30 29 29 29 30 30 31 31 31 32 32 33 34 34 33 32 31 31 32 33 34 34 36 37 35 34 34 33 33 33 33 32 32 32 32 33 35 37 38 38 40 40 38 37 38 40 40 40
26 28 30 31 33 33 34 34 34 34 34 35 35 35 34 33 31 30 30 30 31 32 33 33 34 34 34 33 33 33 34 34 34 34 34 34 34 34 34 34 34 35 35 35 35 35 36 37 38 39 39 37 35 33 34 36 37 37 38 38 39 39 39 38 37 36 36 36 36 36 36 36 37 39 40 40 40 41 42 40 38 38 39 40 40
28 29 31 33 34 36 37 37 36 37 38 38 38 38 37 36 35 34 33 33 35 36 36 36 37 38 38 38 38 38 38 38 37 37 38 38 38 38 38 38 38 39 39 39 39 39 39 40 41 42 40 39 38 37 37 40 41 42 42 42 41 41 42 42 42 40 40 40 40 40 41 41 41 43 43 41 42 43 42 41 41 39 38 38 38
30 30 31 33 35 37 38 38 39 39 41 42 42 41 40 40 38 37 37 37 37 38 39 39 39 41 42 42 42 42 42 42 42 42 42 43 43 42 42 42 42 43 43 43 42 41 41 41 41 41 41 40 40 40 41 44 46 46 46 45 45 44 44 45 45 44 43 43 42 42 43 43 43 44 42 41 43 45 43 42 42 41 41 41 41
33 33 33 34 36 38 39 40 41 41 42 42 43 44 44 44 42 41 40 40 40 41 42 43 44 45 46 46 46 47 47 47 47 47 47 46 46 46 46 47 47 47 46 44 43 42 42 41 41 41 42 43 44 44 47 49 51 50 49 48 48 48 47 48 48 47 46 44 43 43 43 42 41 41 39 39 43 45 45 43 43 43 42 43 43
37 36 36 36 37 39 41 43 44 45 45 44 43 44 44 44 45 45 45 44 44 44 45 46 46 46 47 48 48 49 51 51 52 52 51 51 50 50 50 51 51 51 50 48 46 45 45 44 44 44 45 46 48 50 53 55 54 52 51 50 49 50 50 50 50 49 48 47 46 46 44 42 41 39 38 40 42 41 40 40 40 40 41 41 41
40 40 40 39 40 41 43 45 46 47 49 49 48 48 47 45 45 46 47 47 46 47 48 48 48 47 48 49 49 50 52 53 54 55 55 54 53 53 53 53 53 54 54 52 51 51 50 51 51 51 50 51 53 56 59 59 58 56 55 53 53 52 53 53 53 53 52 51 48 46 45 46 45 42 42 45 44 40 38 38 38 38 40 41 41
38 39 41 41 42 44 45 47 48 49 50 50 49 49 48 46 43 42 42 42 42 43 44 46 46 46 47 48 49 49 50 51 52 52 52 52 51 52 52 52 52 54 55 56 56 56 56 56 56 56 56 57 59 62 63 63 61 60 59 58 57 56 56 56 56 56 56 54 51 49 50 51 49 44 42 44 45 44 43 42 41 40 41 41 41
34 35 37 39 41 43 46 48 50 51 52 52 52 50 49 48 46 45 45 44 43 44 44 45 46 46 47 47 48 48 48 48 49 50 51 51 53 54 55 56 57 58 59 59 60 60 60 60 60 61 62 63 65 66 66 65 63 62 61 61 61 60 59 59 57 56 56 54 53 51 51 51 49 45 43 44 46 48 49 48 46 45 43 42 41
34 35 35 37 38 40 42 45 48 49 51 53 54 55 55 55 54 53 52 50 49 48 48 49 49 50 51 52 52 53 54 55 56 57 58 59 60 61 62 63 63 63 63 63 64 64 64 64 65 66 67 67 67 67 67 66 64 63 62 61 61 61 60 59 58 56 55 54 53 52 50 49 48 46 43 43 46 49 52 53 52 50 48 46 44
36 37 37 38 39 40 41 43 44 46 48 50 52 53 54 55 55 54 53 52 51 51 51 51 51 52 53 54 55 57 58 59 61 62 63 63 64 65 65 66 66 66 66 67 67 67 67 67 67 68 68 68 67 66 66 65 64 63 63 62 61 60 60 59 58 57 55 55 55 53 51 48 47 45 44 44 44 46 50 52 53 51 49 47 46
37 38 39 40 41 42 43 44 45 46 47 49 50 51 52 53 53 54 53 53 53 53 53 53 54 54 55 55 56 58 59 60 61 62 63 64 64 65 66 67 67 68 68 69 69 69 69 69 69 69 68 68 68 67 66 66 64 63 63 62 61 61 60 59 58 57 57 56 56 55 52 49 46 44 43 44 45 44 46 48 49 49 48 47 47
40 41 41 42 42 43 43 44 45 45 46 47 48 49 50 50 51 52 52 52 52 53 53 53 54 55 55 56 57 58 59 60 61 62 63 64 65 66 66 67 68 69 69 70 70 70 71 71 71 71 71 70 70 68 68 67 66 64 63 62 61 61 60 59 58 57 56 55 55 55 54 53 50 46 45 46 47 48 49 50 50 50 48 47 49
42 43 44 43 43 43 44 45 45 46 46 47 47 48 48 48 49 50 51 52 53 54 55 55 56 57 58 59 59 60 61 62 63 64 64 65 66 67 68 69 70 71 71 72 72 73 73 73 73 73 73 72 71 70 69 68 66 65 66 65 64 62 61 60 59 58 56 55 54 53 53 51 49 47 46 47 49 50 52 53 53 50 47 47 52
43 45 45 45 44 45 45 46 47 47 48 49 50 50 51 51 52 53 54 55 56 57 58 59 60 60 61 61 62 62 63 64 64 65 66 67 68 69 70 70 71 72 72 73 73 72 72 73 73 72 72 72 71 70 69 67 63 61 62 64 63 60 59 58 58 56 55 55 54 54 52 50 47 45 46 47 48 49 50 49 48 44 38 38 43
42 44 45 46 47 48 48 49 50 51 51 52 53 54 55 55 56 57 57 59 59 60 61 62 62 62 63 63 63 64 64 65 65 66 67 68 68 69 70 70 70 70 70 70 70 70 70 70 70 69 69 69 68 67 67 66 63 60 61 62 62 61 59 58 57 55 55 55 54 53 52 50 47 45 44 43 43 44 45 43 41 37 33 31 34
44 45 46 47 48 49 50 51 52 52 53 54 55 56 57 58 59 59 60 60 60 60 61 61 61 62 62 62 63 63 63 64 64 65 65 65 65 65 66 66 66 66 66 65 66 66 66 66 65 65 65 65 64 63 63 62 62 61 59 59 61 60 58 56 56 56 56 56 54 52 50 49 48 47 45 44 43 43 43 41 40 39 38 38 38
Wind_Direction
275 282 280 289 295 294 295 292 285 283 284 285 285 283 282 279 277 274 274 279 283 284 284 287 289 282 271 263 256 257 265 271 267 256 251 248 246 255 266 267 261 254 253 256 256 254 254 258 266 265 256 253 256 257 255 255 254 254 256 255 256 258 260 260 261 268 271 269 275 281 282 286 294 300 294 279 279 286 283 282 289 297 307 312 316
278 279 280 288 292 292 295 292 286 285 283 278 278 282 282 283 283 280 276 276 279 286 289 293 295 288 277 266 260 260 264 262 255 249 252 258 270 283 287 284 273 263 260 261 262 262 261 264 269 268 263 260 262 266 266 263 257 252 255 255 255 261 263 259 257 262 266 267 271 278 285 292 296 297 293 289 291 298 299 296 296 298 303 307 308
276 278 282 286 289 291 292 287 279 278 277 270 271 274 275 281 285 283 274 267 274 286 294 301 299 288 278 268 257 249 247 248 250 255 261 269 280 287 285 280 272 265 263 261 259 260 258 256 257 258 253 250 257 264 265 262 258 255 257 258 259 262 261 256 259 268 271 271 272 276 281 284 285 288 290 293 297 301 303 296 292 294 297 296 297
274 278 281 282 284 286 286 281 270 269 274 271 267 266 269 270 269 273 268 259 269 281 286 292 288 278 266 247 239 238 244 252 256 260 265 269 274 275 271 266 263 262 263 261 258 256 256 254 253 253 245 240 245 250 252 255 257 259 262 264 263 261 261 262 267 268 264 264 269 272 275 276 277 282 285 285 291 296 296 286 287 294 293 288 290
272 276 276 276 278 281 281 276 267 266 271 271 266 262 265 262 245 245 250 249 259 265 273 281 280 274 238 210 235 269 265 260 261 264 266 266 266 264 261 258 257 260 263 264 259 255 256 255 253 250 246 243 240 242 248 252 254 257 257 258 257 257 259 261 263 260 255 259 265 268 272 275 277 279 278 280 287 292 289 285 290 294 292 290 292
273 275 274 274 276 279 276 266 262 264 264 264 264 260 255 246 215 195 201 220 247 259 277 287 280 273 234 221 261 284 274 265 266 264 262 261 262 260 256 253 252 255 259 262 261 259 257 255 255 255 254 252 241 237 241 244 248 253 253 253 252 252 253 252 252 255 258 262 263 263 268 275 277 279 281 286 289 289 290 292 294 290 290 292 292
272 272 273 274 275 277 270 260 259 261 260 261 262 256 243 241 241 228 221 227 237 242 260 270 265 265 256 254 268 277 274 272 269 264 262 263 264 263 259 253 251 254 258 262 265 264 261 259 261 262 260 257 247 239 238 239 243 246 250 252 252 253 254 254 255 257 259 261 262 262 269 275 276 279 285 290 291 290 294 296 295 288 284 282 285
268 268 272 274 273 268 259 257 259 258 259 259 258 250 239 240 249 251 248 243 236 232 239 249 252 255 256 257 262 267 270 270 265 262 262 265 266 267 267 262 258 259 263 268 271 270 267 263 262 264 265 264 261 255 250 248 250 251 253 256 257 257 257 255 253 255 258 261 264 267 272 275 276 279 284 287 288 289 291 293 292 290 285 279 281
263 265 269 270 267 259 253 255 258 258 259 259 252 241 233 231 213 180 198 221 225 232 249 253 251 246 243 245 252 260 264 263 260 259 262 265 267 268 271 271 265 259 259 266 272 274 272 266 263 264 266 268 270 270 268 263 260 259 258 259 259 258 258 258 254 255 259 262 267 271 274 275 275 279 284 287 287 286 287 289 288 287 286 285 285
260 263 262 261 256 251 252 255 256 259 260 256 246 233 226 222 205 191 198 214 222 236 260 261 245 239 238 244 252 257 258 256 256 260 264 266 269 272 275 278 274 263 254 257 265 274 278 275 271 267 265 265 266 268 270 269 266 262 260 261 259 257 260 263 262 261 263 265 268 271 271 273 275 279 285 286 285 284 285 287 284 281 282 283 284
259 256 251 248 246 247 251 254 259 265 261 253 244 234 227 220 211 206 204 209 214 226 259 265 250 259 261 256 253 252 251 253 256 260 264 265 267 271 274 276 276 268 258 254 254 264 279 286 283 276 271 268 267 266 266 267 266 264 263 263 260 260 263 265 266 267 268 268 268 268 268 271 275 278 281 283 282 285 288 287 283 280 281 281 280
250 244 242 240 241 246 251 255 258 253 243 249 249 240 229 217 203 192 192 199 204 213 231 232 244 271 274 259 246 244 250 256 259 261 263 266 268 269 271 271 269 266 260 254 249 251 264 279 288 288 282 276 272 271 270 269 268 268 267 266 265 268 268 267 269 270 271 269 264 264 265 268 272 276 278 279 282 289 290 284 279 281 284 282 282
242 241 239 235 239 245 249 254 248 232 236 260 258 243 230 217 206 201 207 214 216 219 207 190 194 206 292 269 246 246 255 258 262 266 267 270 273 275 275 273 270 267 262 256 250 250 257 265 274 282 284 282 277 274 273 273 274 273 270 267 267 270 271 270 271 272 272 269 266 266 268 271 276 279 279 279 283 287 281 279 282 286 285 280 282
244 245 243 239 240 242 245 250 245 238 248 256 247 239 232 224 222 225 232 234 231 226 218 211 210 213 253 282 266 258 258 259 262 266 268 271 273 276 277 276 273 270 265 261 257 254 258 264 270 275 278 281 280 277 276 275 275 274 269 268 268 269 271 271 270 271 272 273 274 275 276 279 281 281 283 285 285 275 270 281 292 296 290 286 288
241 248 249 243 241 242 243 245 244 244 245 237 227 227 226 225 227 231 238 240 235 229 226 231 236 240 254 273 271 257 255 262 263 262 264 266 269 273 278 280 277 270 266 263 261 258 261 265 268 271 273 275 275 274 275 274 273 273 271 270 270 269 269 269 269 271 273 276 278 279 281 284 286 286 287 289 285 278 278 288 299 299 292 290 289
241 245 243 236 236 240 241 242 247 243 228 210 207 212 216 222 225 227 233 238 238 236 235 240 249 252 247 253 269 257 250 253 250 249 255 259 264 269 274 279 275 268 264 262 263 263 264 268 270 271 271 269 267 267 267 266 267 269 269 268 269 270 270 270 272 273 274 276 277 280 284 287 288 289 288 289 290 291 290 288 284 279 278 280 280
237 233 232 233 236 239 243 258 264 248 228 207 200 212 221 224 226 229 235 241 241 242 243 247 252 248 241 251 271 268 253 247 242 243 249 256 262 262 263 265 262 258 258 258 261 265 268 276 281 281 276 269 264 264 263 261 262 262 262 263 264 267 270 272 273 273 275 276 276 277 281 283 284 283 282 285 290 290 287 282 278 272 269 272 271
232 229 234 237 240 241 245 265 268 241 228 208 204 231 235 223 222 234 245 251 250 249 251 249 244 238 240 251 261 260 252 247 245 246 251 257 260 257 254 253 251 251 254 259 266 274 280 286 292 295 291 277 267 263 262 260 260 260 261 263 264 266 270 273 274 275 276 275 275 275 276 278 277 274 276 281 283 282 281 283 283 279 273 270 268
232 229 237 241 245 244 242 253 251 230 217 205 214 255 254 228 220 234 246 255 257 257 255 244 234 232 239 249 253 253 250 246 245 247 251 255 254 250 246 244 245 249 255 264 273 283 291 297 300 299 295 285 272 262 259 259 258 259 260 262 265 267 270 273 274 276 276 277 277 277 277 277 275 274 276 278 279 279 282 286 287 283 279 277 276
235 233 237 238 240 238 235 243 241 223 213 213 233 269 270 249 249 255 254 256 252 247 245 240 235 234 241 251 251 249 246 241 238 241 245 247 245 243 242 240 242 248 254 260 269 280 290 297 302 300 293 284 277 268 262 258 255 256 256 257 261 263 266 269 271 273 275 276 276 276 277 278 277 278 279 279 281 283 286 286 283 279 277 278 280
239 236 235 239 240 236 233 235 230 221 224 236 255 271 267 259 267 269 267 268 260 250 248 246 244 244 246 248 245 240 236 231 228 231 237 240 239 238 238 239 243 249 255 259 266 278 288 295 299 299 295 287 281 277 271 264 259 256 256 257 259 261 264 267 270 272 274 275 276 278 280 282 282 282 283 285 287 287 285 281 276 273 273 274 278
243 236 236 243 241 234 233 236 233 231 239 249 257 267 268 264 267 268 271 273 269 267 265 260 255 252 247 243 239 229 221 218 218 224 231 235 236 237 239 244 248 252 256 259 266 276 285 293 296 298 299 297 291 286 280 275 271 267 267 268 268 270 272 273 275 276 277 279 280 282 283 284 286 286 287 288 287 284 280 277 275 274 274 274 276
243 238 235 237 237 239 244 247 242 239 246 252 254 261 269 269 266 267 269 269 269 269 266 261 256 250 244 239 233 223 215 214 216 223 229 233 236 240 244 248 251 253 256 261 268 277 284 290 292 293 295 296 296 294 289 286 283 280 281 282 282 283 283 282 282 281 281 281 281 281 281 283 284 285 286 287 285 282 279 278 278 278 275 273 272
239 234 230 232 241 251 253 253 249 242 243 248 252 257 264 267 266 268 268 266 265 265 262 260 254 247 242 236 228 222 221 220 222 227 232 236 240 243 245 247 249 250 254 259 266 275 283 287 290 291 292 293 294 293 291 290 289 288 289 291 292 293 292 291 290 288 286 284 282 281 282 284 285 285 286 286 285 282 278 276 277 278 278 275 270
236 234 235 241 250 253 250 245 239 233 236 246 254 259 262 265 265 264 265 265 263 263 261 255 248 243 239 231 222 223 226 226 228 231 234 237 240 242 244 245 247 248 250 255 262 268 274 278 283 286 289 291 291 290 289 290 289 289 292 295 298 299 299 299 298 296 294 290 286 284 283 283 284 284 284 283 282 281 278 275 275 278 281 279 275
240 241 243 248 253 256 253 238 220 224 247 256 262 268 268 265 264 262 264 265 263 264 259 250 245 241 233 223 217 222 227 227 229 232 234 236 238 240 244 247 249 250 251 255 258 262 266 269 273 278 281 283 285 286 286 287 289 289 291 293 296 299 302 304 304 303 300 295 290 287 284 283 282 282 283 281 280 280 279 278 278 280 281 281 280
238 238 240 245 253 255 243 216 208 236 270 274 271 273 271 268 267 264 262 261 263 270 263 251 246 237 223 218 217 222 225 225 228 233 236 238 239 241 246 250 251 252 254 258 261 264 267 269 272 276 279 280 282 283 283 284 285 285 287 290 293 295 298 300 301 300 299 296 293 290 287 285 284 283 284 282 281 280 279 278 278 278 278 279 280
240 242 244 248 256 257 243 231 232 252 282 291 285 276 271 268 265 259 258 255 257 265 259 245 241 229 216 217 222 220 222 225 229 234 237 238 239 240 245 248 248 250 254 258 261 265 267 268 271 275 277 279 281 282 283 282 282 282 283 285 288 290 292 294 295 294 294 293 292 290 287 285 284 283 282 282 282 282 281 279 277 275 274 273 276
247 249 252 254 258 260 258 257 258 261 274 287 285 279 276 273 264 259 260 259 260 266 253 237 237 233 221 222 224 221 223 228 230 232 233 235 237 239 243 245 245 250 255 256 258 261 263 265 266 268 271 274 277 279 281 282 282 283 283 285 286 288 288 289 289 289 288 286 285 285 285 284 283 282 282 281 281 281 281 280 277 276 275 273 272
251 253 257 260 260 262 264 265 266 267 272 276 276 277 278 275 269 266 263 262 263 263 249 237 241 240 229 221 220 220 226 231 231 231 233 235 239 242 246 246 246 250 253 253 254 257 259 261 262 264 265 268 270 274 277 280 281 282 282 284 287 288 288 289 288 287 284 280 279 281 284 285 284 283 282 281 279 279 279 278 277 277 277 275 274
256 258 262 263 263 264 265 267 269 272 274 275 275 276 276 273 271 269 266 263 260 255 247 241 238 236 233 233 233 235 239 239 234 235 238 242 244 245 247 247 247 248 249 249 250 252 255 259 261 263 265 267 269 273 276 277 279 280 281 283 284 285 285 285 286 285 283 280 278 278 279 280 280 280 279 279 279 278 277 276 275 274 273 274 276
260 262 263 265 265 265 266 268 269 271 272 272 273 273 272 271 271 270 268 266 263 257 251 245 241 243 255 262 256 249 248 245 242 244 247 249 248 247 248 247 248 250 250 250 252 253 256 258 259 262 266 267 268 271 274 276 279 281 283 284 285 283 281 280 279 280 280 280 280 279 279 279 278 278 277 278 278 279 278 277 275 273 273 273 275
257 258 260 261 262 262 262 263 264 265 266 267 268 269 269 270 270 271 272 272 271 267 259 253 253 258 264 266 260 254 251 248 247 249 250 250 250 250 249 248 250 252 253 255 259 260 261 262 261 262 265 266 267 270 273 276 280 283 285 285 284 282 281 280 278 277 277 278 279 280 280 281 281 281 281 280 280 279 278 277 276 275 274 275 274
249 249 252 255 256 255 255 255 256 257 259 260 262 263 264 265 267 269 271 271 269 265 261 259 259 260 261 261 259 256 253 251 251 251 251 253 253 253 252 251 253 255 256 260 265 266 265 265 264 265 267 268 270 273 275 278 281 283 285 285 283 282 280 279 279 279 279 279 278 278 278 279 280 281 282 282 282 280 278 276 277 277 275 274 272
245 243 244 247 249 248 247 249 251 253 255 256 258 259 260 261 263 265 266 265 262 259 258 258 258 257 257 257 256 255 254 255 256 256 256 255 255 254 254 254 255 256 258 261 265 265 264 264 266 268 269 269 271 273 277 280 282 283 283 283 283 282 281 280 280 279 279 279 279 278 278 278 278 280 281 283 283 282 279 277 278 277 275 272 270
246 245 243 243 244 244 245 246 248 251 253 255 256 257 258 259 260 260 260 260 259 259 260 260 261 261 260 259 260 261 262 262 262 262 261 259 257 257 257 257 257 258 259 261 263 263 263 264 268 270 269 268 267 270 276 282 285 285 282 280 280 281 282 282 280 278 277 278 278 279 278 278 279 281 281 282 282 280 278 277 277 276 274 271 269
246 247 247 246 244 243 244 246 248 250 252 254 255 255 256 257 256 256 257 258 258 259 262 263 264 264 265 265 267 267 267 266 265 265 264 263 263 262 261 260 259 258 259 261 263 263 263 265 268 269 267 264 263 268 277 283 286 286 283 280 278 279 280 280 280 278 278 278 278 278 278 277 279 281 281 281 280 278 276 277 276 275 274 271 270
245 246 248 249 248 247 247 249 250 252 252 254 253 252 252 253 254 254 256 257 258 260 262 262 262 263 265 266 268 268 268 268 267 266 266 267 267 267 265 264 263 263 263 263 262 262 263 265 266 264 262 260 261 268 277 282 284 284 283 280 278 278 278 279 279 280 280 279 278 278 276 277 280 282 281 278 277 275 275 276 275 274 273 272 272
247 247 247 248 249 250 251 251 252 251 251 250 250 248 248 248 249 252 255 256 257 259 260 261 261 263 264 266 267 268 269 270 269 268 268 269 269 269 268 267 267 268 266 263 261 261 264 265 264 261 259 258 260 267 274 279 281 281 280 279 278 278 278 278 278 280 280 280 280 279 278 279 282 282 280 276 273 273 273 273 273 273 272 272 272
251 249 248 247 248 248 250 251 252 253 253 252 252 253 252 249 247 249 251 253 255 256 258 259 260 261 263 265 268 269 270 270 270 269 269 270 270 269 269 269 269 270 268 264 263 264 264 264 263 261 260 260 262 268 274 278 279 278 277 277 276 277 277 277 278 278 278 278 279 279 278 278 278 279 279 277 272 269 269 269 270 271 272 273 273
254 252 250 248 247 247 248 250 252 253 255 257 258 260 262 261 256 252 250 251 253 254 256 257 259 260 261 264 266 268 268 268 268 268 269 270 269 269 270 271 272 272 271 268 266 266 264 263 263 263 263 264 268 272 276 278 278 278 277 276 276 275 276 276 277 278 278 279 279 276 275 276 277 278 278 276 271 265 263 266 269 271 274 275 274
255 254 253 250 248 248 248 249 250 252 254 257 259 261 263 264 263 260 258 258 258 259 259 260 262 263 264 265 267 267 266 265 265 265 266 265 264 265 266 267 268 268 268 267 266 266 265 264 264 264 265 267 271 275 276 277 277 277 277 277 276 276 275 275 276 277 277 278 277 274 273 275 277 275 272 271 269 266 264 266 267 271 275 275 276
254 255 254 253 252 250 250 251 251 252 253 254 256 259 260 261 262 263 264 264 264 263 264 264 265 266 266 266 266 264 263 262 260 260 260 260 261 263 265 267 267 268 268 268 269 270 269 268 267 267 268 270 272 274 275 276 276 276 276 276 276 276 276 276 276 276 276 276 276 275 274 275 275 271 265 264 264 265 266 267 267 271 274 274 276
255 255 255 255 255 254 254 254 255 255 255 255 256 257 259 261 263 264 265 266 266 265 266 266 266 266 266 266 265 264 263 262 262 263 264 265 266 268 270 271 272 272 272 272 272 272 272 271 270 270 271 271 272 274 275 275 276 276 276 276 276 276 276 276 275 275 275 275 275 275 275 273 272 270 265 262 261 263 265 266 266 269 270 271 274
259 258 257 256 256 255 255 256 256 257 257 258 258 259 260 262 263 265 267 267 268 268 268 268 268 268 268 268 268 268 267 268 268 269 269 270 270 271 271 272 273 273 273 273 273 273 273 273 272 272 273 273 273 274 274 275 275 275 275 275 274 274 274 275 274 274 274 274 275 275 274 272 270 268 264 262 264 266 267 265 265 266 267 269 272
264 263 262 261 260 259 257 256 257 257 258 259 260 261 262 263 265 267 268 269 270 271 271 271 272 272 272 272 272 272 272 272 273 273 273 273 273 273 273 274 274 274 275 275 274 274 275 274 274 274 274 274 274 274 274 274 275 276 276 275 274 273 273 273 273 273 273 273 273 272 271 269 268 265 261 258 260 264 265 265 265 267 268 270 273
265 265 264 263 263 262 261 260 259 259 259 259 260 261 262 264 266 267 269 270 271 272 272 273 274 274 275 275 275 275 275 275 274 274 274 274 274 274 274 274 274 274 274 275 275 274 274 274 274 274 274 274 273 273 273 273 273 273 273 273 273 272 272 272 271 271 271 271 270 269 268 267 266 265 260 256 255 256 258 261 264 267 271 274 276
265 264 264 264 263 262 262 262 262 262 262 262 263 264 265 266 268 269 270 271 271 272 272 273 274 275 275 276 276 276 275 275 274 274 274 274 274 274 273 273 273 273 273 274 274 274 274 274 273 273 273 273 272 272 271 271 272 273 273 272 271 271 271 270 269 269 268 267 267 267 266 266 266 265 261 258 258 258 259 262 266 267 270 275 275
263 264 264 263 262 262 263 263 264 264 265 266 267 268 269 270 271 272 273 273 273 274 274 275 276 276 276 277 276 276 276 275 275 275 274 274 274 274 274 274 274 274 274 274 274 274 273 273 273 273 273 272 272 271 271 270 270 270 271 272 271 269 268 268 268 268 267 265 265 265 265 266 267 266 263 260 261 262 263 264 265 264 264 268 267
261 263 263 263 262 262 264 265 266 268 269 270 270 271 272 273 274 275 275 275 276 276 276 277 277 277 277 277 277 277 276 276 276 276 276 276 276 276 276 276 276 276 276 276 275 274 274 274 273 273 272 272 271 271 270 269 267 265 265 268 270 270 268 266 265 265 264 264 263 264 265 266 267 267 264 261 260 262 263 262 259 257 255 255 256
260 260 261 262 262 263 264 266 267 269 270 271 272 273 274 275 276 276 276 277 277 277 277 277 277 277 277 277 277 277 277 277 277 277 277 277 277 278 278 277 277 276 276 276 275 274 274 273 272 272 271 270 270 269 268 267 265 263 262 262 265 267 267 266 264 263 262 263 263 264 266 268 268 266 262 258 256 259 260 257 256 258 262 262 262
Height
5782 5782 5782 5782 5783 5785 5787 5787 5788 5788 5788 5789 5789 5789 5788 5788 5789 5790 5791 5792 5793 5793 5794 5795 5795 5795 5796 5796 5797 5797 5797 5798 5798 5799 5799 5799 5800 5800 5800 5801 5801 5801 5802 5802 5803 5803 5804 5804 5804 5805 5806 5806 5807 5808 5807 5808 5809 5810 5810 5810 5810 5810 5811 5811 5812 5811 5811 5811 5812 5813 5813 5814 5815 5815 5816 5816 5816 5815 5815 5815 5815 5814 5814 5815 5815
5780 5780 5781 5781 5781 5784 5785 5785 5786 5786 5786 5787 5788 5788 5788 5787 5788 5789 5789 5790 5791 5792 5793 5793 5794 5794 5794 5795 5796 5796 5797 5797 5798 5798 5798 5798 5799 5799 5799 5799 5799 5799 5799 5800 5801 5802 5802 5803 5804 5804 5805 5805 5805 5806 5806 5806 5807 5808 5809 5809 5809 5809 5810 5810 5810 5810 5810 5810 5810 5811 5811 5812 5813 5814 5814 5814 5814 5814 5814 5813 5813 5813 5813 5813 5813
5778 5779 5780 5780 5781 5783 5784 5784 5785 5785 5785 5786 5787 5787 5787 5787 5787 5788 5788 5788 5789 5791 5792 5793 5793 5793 5794 5795 5795 5796 5796 5796 5797 5797 5797 5797 5798 5798 5798 5798 5798 5797 5797 5799 5800 5801 5801 5802 5803 5803 5803 5804 5804 5804 5805 5805 5806 5807 5807 5807 5808 5808 5809 5809 5808 5808 5809 5809 5809 5810 5810 5811 5812 5812 5812 5812 5812 5812 5813 5812 5812 5812 5813 5813 5812
5777 5778 5778 5778 5779 5781 5783 5783 5784 5784 5784 5785 5786 5786 5786 5786 5786 5786 5787 5788 5788 5790 5791 5792 5792 5792 5793 5794 5794 5795 5795 5796 5796 5796 5796 5796 5797 5797 5798 5797 5797 5796 5796 5798 5799 5800 5800 5801 5801 5801 5802 5802 5802 5803 5804 5804 5804 5805 5806 5806 5806 5807 5807 5807 5807 5807 5807 5807 5808 5808 5809 5810 5810 5810 5810 5810 5811 5811 5812 5812 5812 5812 5812 5811 5811
5775 5775 5776 5776 5778 5780 5781 5781 5782 5783 5783 5784 5784 5785 5785 5784 5784 5785 5786 5787 5788 5789 5791 5791 5791 5791 5792 5793 5793 5794 5794 5794 5794 5794 5794 5795 5796 5796 5797 5797 5796 5795 5795 5796 5798 5799 5799 5799 5800 5800 5801 5801 5801 5801 5802 5803 5803 5803 5804 5804 5805 5805 5806 5806 5806 5806 5806 5807 5807 5807 5807 5808 5808 5809 5809 5810 5810 5810 5810 5811 5811 5811 5810 5809 5810
5773 5773 5773 5775 5777 5778 5779 5780 5780 5781 5781 5782 5782 5783 5784 5784 5784 5785 5785 5786 5788 5789 5790 5790 5790 5791 5791 5792 5792 5793 5793 5793 5793 5793 5793 5793 5795 5795 5796 5796 5795 5795 5795 5795 5796 5797 5798 5798 5798 5798 5799 5799 5800 5800 5801 5802 5802 5802 5802 5803 5803 5804 5804 5805 5804 5805 5805 5805 5805 5805 5806 5806 5806 5807 5807 5808 5808 5808 5808 5808 5809 5809 5808 5808 5808
5771 5770 5771 5773 5775 5776 5778 5778 5779 5779 5779 5780 5780 5782 5783 5784 5784 5785 5785 5786 5787 5787 5788 5788 5789 5790 5791 5791 5791 5791 5792 5792 5792 5792 5792 5792 5793 5794 5794 5794 5794 5794 5794 5794 5794 5795 5796 5796 5797 5797 5797 5798 5798 5799 5799 5800 5800 5801 5801 5801 5802 5802 5803 5803 5803 5803 5803 5804 5804 5804 5804 5804 5804 5804 5805 5806 5806 5805 5805 5806 5806 5806 5806 5807 5806
5768 5768 5770 5771 5773 5774 5776 5776 5777 5777 5778 5779 5780 5781 5782 5783 5784 5784 5784 5785 5785 5786 5787 5787 5787 5788 5789 5789 5789 5790 5791 5791 5791 5791 5791 5791 5791 5791 5792 5792 5793 5793 5792 5792 5793 5793 5794 5795 5795 5796 5796 5796 5797 5797 5798 5798 5798 5799 5799 5799 5800 5800 5800 5801 5801 5801 5801 5801 5801 5801 5802 5802 5802 5802 5802 5803 5803 5803 5803 5804 5804 5804 5804 5805 5805
5767 5767 5768 5769 5771 5772 5774 5774 5775 5775 5777 5778 5779 5780 5781 5781 5782 5783 5783 5784 5784 5785 5786 5786 5786 5786 5787 5787 5788 5789 5789 5789 5789 5790 5790 5790 5790 5790 5790 5791 5791 5792 5792 5792 5792 5792 5792 5793 5794 5795 5795 5795 5795 5795 5796 5796 5796 5797 5798 5798 5798 5798 5798 5799 5799 5799 5799 5799 5799 5799 5799 5800 5800 5800 5800 5800 5801 5801 5802 5802 5802 5802 5802 5802 5802
5765 5766 5767 5767 5769 5770 5771 5772 5773 5774 5775 5777 5778 5778 5779 5780 5780 5781 5782 5783 5783 5784 5784 5784 5784 5784 5785 5786 5787 5787 5787 5788 5788 5788 5789 5789 5789 5789 5789 5789 5789 5790 5791 5791 5791 5791 5791 5791 5792 5793 5793 5793 5794 5794 5794 5794 5794 5795 5796 5796 5797 5797 5796 5796 5797 5797 5797 5797 5797 5797 5797 5797 5798 5798 5798 5798 5799 5799 5800 5800 5800 5800 5800 5800 5800
5764 5764 5765 5766 5767 5768 5769 5771 5772 5773 5774 5775 5777 5777 5777 5778 5779 5780 5781 5781 5781 5782 5782 5782 5782 5783 5783 5784 5784 5785 5785 5786 5786 5787 5787 5788 5788 5788 5788 5788 5788 5788 5789 5789 5790 5790 5790 5790 5790 5790 5791 5791 5791 5792 5792 5792 5792 5793 5794 5794 5795 5795 5795 5795 5795 5795 5795 5795 5795 5796 5796 5796 5796 5796 5796 5796 5796 5797 5798 5798 5798 5798 5798 5798 5798
5762 5763 5763 5764 5765 5766 5767 5769 5771 5771 5772 5774 5775 5775 5776 5776 5777 5778 5779 5780 5780 5780 5780 5780 5780 5781 5781 5781 5782 5783 5783 5784 5784 5785 5785 5786 5786 5786 5786 5786 5786 5787 5787 5788 5788 5789 5789 5789 5789 5789 5790 5790 5790 5790 5790 5790 5791 5791 5791 5792 5792 5793 5793 5793 5793 5793 5794 5794 5793 5793 5793 5793 5794 5794 5795 5795 5795 5795 5796 5796 5796 5796 5797 5796 5796
5761 5761 5761 5762 5763 5765 5766 5768 5769 5770 5770 5772 5773 5773 5774 5774 5775 5776 5777 5778 5778 5778 5778 5778 5779 5779 5779 5780 5781 5781 5781 5782 5782 5783 5783 5784 5784 5784 5785 5784 5784 5785 5785 5786 5787 5787 5787 5788 5788 5788 5789 5789 5789 5789 5788 5788 5789 5789 5789 5790 5790 5790 5791 5791 5791 5791 5792 5792 5791 5791 5791 5791 5791 5792 5792 5793 5793 5793 5793 5793 5794 5795 5794 5794 5794
5759 5759 5760 5761 5763 5764 5765 5766 5767 5768 5768 5769 5770 5771 5771 5772 5773 5774 5775 5776 5776 5776 5777 5777 5777 5778 5778 5779 5779 5779 5779 5780 5781 5781 5782 5782 5783 5783 5783 5783 5783 5783 5784 5784 5785 5785 5786 5786 5787 5787 5787 5787 5788 5787 5787 5787 5787 5787 5787 5787 5788 5788 5788 5789 5789 5789 5789 5789 5789 5789 5789 5789 5789 5789 5789 5790 5791 5792 5791 5791 5792 5792 5792 5792 5792
5757 5757 5758 5759 5760 5761 5763 5764 5765 5765 5766 5767 5768 5769 5769 5770 5771 5772 5772 5773 5774 5774 5775 5775 5776 5776 5776 5777 5778 5778 5778 5778 5779 5780 5781 5781 5782 5782 5781 5781 5781 5781 5782 5783 5783 5784 5784 5784 5784 5784 5785 5785 5785 5785 5785 5785 5785 5785 5785 5785 5785 5786 5786 5786 5787 5787 5787 5787 5787 5787 5786 5786 5786 5786 5786 5787 5788 5789 5789 5789 5789 5790 5789 5789 5790
5755 5755 5756 5757 5757 5759 5761 5761 5761 5762 5764 5765 5766 5767 5768 5769 5769 5769 5769 5770 5770 5771 5772 5773 5774 5775 5775 5775 5776 5777 5777 5777 5778 5779 5780 5780 5781 5781 5780 5780 5780 5780 5780 5781 5782 5782 5782 5782 5782 5782 5782 5782 5782 5783 5783 5783 5783 5783 5783 5783 5783 5783 5784 5784 5784 5784 5784 5784 5784 5784 5784 5784 5784 5784 5784 5785 5785 5786 5787 5787 5787 5787 5787 5787 5788
5753 5754 5754 5755 5756 5758 5759 5760 5760 5761 5762 5764 5765 5767 5767 5767 5767 5767 5767 5767 5767 5767 5769 5771 5772 5773 5773 5774 5774 5775 5775 5776 5777 5778 5778 5779 5779 5780 5780 5780 5779 5779 5779 5780 5780 5780 5780 5780 5780 5779 5780 5780 5780 5780 5780 5780 5780 5780 5780 5781 5781 5782 5782 5782 5782 5782 5782 5782 5782 5782 5782 5782 5782 5782 5782 5782 5783 5783 5784 5784 5785 5785 5785 5786 5786
5752 5753 5754 5754 5755 5756 5757 5758 5759 5760 5762 5764 5765 5764 5763 5763 5764 5765 5765 5765 5765 5765 5767 5769 5770 5771 5772 5772 5773 5774 5774 5774 5775 5775 5776 5777 5778 5778 5778 5778 5778 5778 5778 5778 5778 5778 5778 5778 5778 5778 5778 5777 5777 5777 5778 5778 5778 5778 5779 5779 5779 5779 5780 5780 5780 5780 5780 5780 5780 5780 5780 5780 5781 5780 5780 5780 5781 5781 5781 5781 5782 5783 5783 5783 5784
5751 5752 5753 5754 5755 5755 5756 5756 5757 5757 5759 5761 5761 5760 5759 5760 5761 5762 5763 5764 5764 5765 5767 5769 5770 5770 5770 5771 5771 5772 5772 5772 5772 5773 5774 5775 5776 5776 5776 5776 5776 5776 5777 5777 5777 5777 5777 5777 5777 5776 5776 5776 5775 5775 5775 5775 5776 5776 5777 5777 5777 5777 5778 5778 5778 5778 5778 5779 5779 5779 5779 5779 5779 5779 5778 5779 5779 5778 5779 5780 5780 5780 5780 5781 5781
5749 5750 5752 5753 5754 5754 5754 5754 5754 5755 5756 5758 5759 5759 5759 5760 5759 5758 5759 5761 5763 5765 5766 5767 5768 5768 5768 5769 5769 5770 5770 5770 5770 5771 5771 5772 5774 5774 5774 5774 5774 5774 5775 5775 5775 5775 5775 5775 5775 5775 5775 5774 5774 5773 5773 5773 5773 5774 5774 5774 5774 5775 5775 5776 5776 5777 5777 5777 5777 5777 5777 5777 5777 5777 5777 5777 5777 5777 5778 5778 5779 5778 5778 5778 5778
5747 5748 5750 5751 5751 5751 5751 5752 5752 5753 5754 5755 5757 5757 5759 5759 5757 5755 5756 5758 5760 5762 5763 5764 5765 5765 5766 5767 5767 5768 5768 5768 5769 5769 5770 5771 5772 5772 5773 5773 5773 5773 5773 5773 5773 5773 5773 5773 5773 5773 5773 5773 5773 5772 5772 5771 5771 5771 5772 5772 5772 5773 5773 5774 5774 5774 5775 5775 5776 5776 5776 5776 5776 5775 5775 5776 5776 5776 5776 5776 5777 5776 5776 5776 5776
5744 5746 5747 5748 5748 5748 5748 5748 5749 5749 5750 5752 5753 5755 5756 5756 5755 5754 5755 5755 5756 5757 5759 5760 5761 5762 5763 5764 5765 5766 5766 5766 5767 5767 5768 5769 5770 5770 5771 5771 5771 5771 5771 5771 5771 5771 5771 5771 5771 5771 5771 5771 5771 5771 5770 5770 5770 5770 5770 5770 5771 5771 5771 5772 5772 5773 5773 5774 5774 5774 5775 5774 5774 5774 5774 5775 5775 5775 5775 5774 5774 5775 5775 5774 5774
5741 5743 5744 5745 5745 5746 5746 5746 5746 5746 5747 5748 5750 5751 5752 5752 5752 5752 5753 5754 5754 5755 5756 5757 5758 5759 5761 5762 5762 5763 5764 5764 5765 5766 5767 5767 5768 5768 5768 5768 5768 5768 5769 5769 5769 5769 5769 5769 5769 5769 5769 5769 5769 5769 5769 5769 5769 5769 5769 5769 5770 5770 5770 5771 5771 5772 5772 5772 5773 5773 5773 5773 5772 5772 5773 5773 5773 5773 5773 5773 5772 5772 5773 5773 5773
5738 5739 5741 5741 5742 5743 5743 5743 5742 5742 5743 5744 5746 5747 5748 5749 5750 5750 5751 5752 5752 5753 5754 5755 5756 5757 5758 5759 5759 5760 5761 5762 5763 5764 5765 5765 5765 5766 5766 5766 5766 5766 5766 5767 5767 5767 5767 5767 5767 5767 5767 5767 5767 5767 5767 5767 5767 5767 5767 5768 5768 5768 5769 5769 5770 5770 5770 5771 5771 5771 5771 5771 5770 5770 5770 5771 5771 5771 5771 5771 5770 5770 5770 5771 5771
5734 5735 5736 5737 5738 5740 5740 5739 5737 5737 5739 5741 5742 5743 5744 5745 5746 5748 5748 5749 5751 5751 5752 5752 5753 5755 5755 5756 5757 5757 5758 5760 5761 5762 5762 5763 5763 5764 5764 5764 5764 5765 5765 5765 5765 5765 5766 5766 5765 5765 5765 5765 5765 5765 5765 5765 5765 5765 5765 5766 5766 5766 5767 5767 5767 5768 5768 5768 5768 5768 5768 5768 5768 5768 5768 5768 5768 5769 5769 5769 5768 5768 5768 5768 5768
5730 5732 5733 5734 5736 5737 5736 5736 5736 5734 5734 5737 5738 5738 5740 5741 5743 5744 5746 5747 5748 5749 5749 5749 5750 5752 5752 5753 5754 5755 5756 5758 5759 5760 5760 5761 5761 5762 5762 5763 5763 5763 5764 5764 5764 5764 5764 5764 5764 5763 5763 5763 5763 5763 5763 5763 5763 5763 5763 5763 5764 5764 5764 5764 5764 5765 5765 5765 5765 5765 5766 5766 5766 5766 5766 5765 5765 5766 5766 5767 5767 5766 5766 5765 5764
5726 5728 5729 5730 5731 5733 5733 5735 5736 5732 5729 5731 5733 5734 5735 5737 5739 5741 5742 5744 5746 5746 5747 5747 5747 5748 5749 5750 5752 5753 5754 5755 5756 5757 5758 5758 5759 5760 5760 5761 5761 5762 5762 5762 5762 5763 5763 5763 5762 5762 5762 5761 5761 5761 5761 5761 5761 5761 5761 5761 5761 5762 5762 5762 5762 5762 5762 5762 5762 5762 5763 5763 5763 5763 5763 5763 5762 5763 5763 5764 5764 5764 5764 5763 5762
5722 5723 5725 5726 5727 5729 5730 5732 5735 5733 5728 5726 5728 5730 5731 5733 5735 5737 5738 5740 5742 5743 5745 5746 5745 5744 5746 5748 5749 5750 5751 5753 5754 5754 5755 5756 5757 5758 5758 5759 5759 5760 5760 5760 5760 5761 5761 5761 5761 5760 5760 5760 5759 5759 5759 5759 5759 5759 5759 5759 5759 5759 5759 5759 5759 5759 5759 5759 5759 5760 5760 5760 5760 5760 5760 5760 5760 5760 5760 5760 5761 5761 5762 5761 5760
5720 5720 5721 5722 5723 5724 5726 5728 5731 5732 5729 5727 5727 5727 5728 5730 5731 5733 5735 5737 5739 5740 5742 5744 5743 5742 5742 5744 5746 5747 5749 5750 5751 5751 5752 5753 5754 5755 5756 5756 5757 5757 5757 5758 5758 5758 5758 5758 5758 5758 5758 5757 5757 5757 5757 5757 5757 5758 5758 5758 5758 5757 5757 5757 5757 5757 5757 5756 5756 5757 5757 5757 5757 5757 5757 5757 5757 5757 5756 5756 5757 5757 5757 5758 5758
5717 5717 5718 5719 5720 5720 5722 5723 5724 5725 5726 5726 5726 5726 5727 5728 5728 5730 5732 5734 5736 5737 5739 5741 5741 5740 5739 5740 5742 5744 5745 5746 5747 5748 5750 5751 5751 5752 5753 5753 5754 5754 5755 5755 5755 5755 5755 5755 5755 5755 5755 5755 5754 5754 5755 5755 5755 5755 5755 5756 5756 5755 5755 5755 5754 5754 5754 5754 5754 5754 5754 5754 5754 5754 5754 5754 5754 5754 5753 5753 5753 5753 5753 5753 5754
5714 5714 5715 5716 5717 5718 5719 5719 5719 5720 5720 5721 5721 5722 5724 5725 5726 5727 5729 5731 5733 5734 5736 5737 5738 5737 5737 5737 5739 5741 5742 5743 5744 5745 5746 5747 5748 5749 5750 5750 5751 5751 5752 5752 5752 5752 5752 5752 5752 5752 5752 5752 5751 5751 5751 5752 5752 5752 5752 5752 5753 5753 5753 5752 5752 5751 5751 5751 5751 5751 5751 5750 5751 5751 5751 5751 5750 5750 5750 5750 5749 5749 5749 5749 5749
5712 5712 5713 5713 5714 5715 5716 5716 5716 5716 5716 5717 5718 5719 5720 5722 5723 5725 5726 5727 5729 5731 5733 5735 5735 5735 5736 5737 5737 5738 5739 5740 5741 5741 5743 5744 5744 5745 5746 5747 5747 5748 5748 5749 5749 5749 5749 5749 5748 5748 5748 5748 5748 5748 5748 5748 5748 5748 5748 5749 5749 5749 5749 5748 5748 5748 5747 5747 5747 5747 5747 5746 5746 5747 5747 5746 5746 5746 5746 5746 5745 5745 5745 5745 5745
5710 5711 5711 5712 5712 5713 5713 5713 5713 5713 5713 5714 5715 5716 5717 5718 5720 5722 5723 5724 5726 5729 5730 5732 5732 5733 5734 5734 5735 5735 5736 5736 5737 5738 5739 5740 5741 5742 5742 5743 5743 5744 5744 5745 5745 5745 5745 5744 5744 5743 5743 5744 5744 5744 5744 5744 5744 5744 5744 5745 5745 5744 5744 5744 5744 5743 5743 5743 5743 5742 5742 5742 5742 5742 5741 5741 5742 5742 5742 5741 5741 5741 5741 5740 5740
5707 5708 5708 5709 5709 5710 5710 5710 5710 5710 5710 5711 5711 5712 5713 5714 5716 5719 5720 5722 5723 5725 5726 5727 5728 5729 5729 5730 5731 5731 5732 5732 5733 5734 5735 5736 5737 5737 5738 5738 5739 5739 5739 5739 5740 5740 5740 5740 5739 5739 5739 5739 5739 5739 5739 5740 5740 5740 5740 5739 5739 5740 5740 5739 5739 5739 5739 5739 5738 5738 5738 5737 5737 5737 5736 5735 5736 5736 5736 5736 5736 5736 5735 5735 5735
5703 5704 5705 5706 5706 5707 5707 5707 5707 5708 5708 5708 5708 5708 5709 5711 5713 5715 5716 5718 5719 5720 5721 5722 5723 5723 5724 5724 5725 5726 5726 5726 5728 5729 5730 5731 5732 5732 5732 5733 5733 5733 5733 5734 5735 5735 5735 5734 5734 5734 5734 5734 5734 5734 5734 5735 5735 5735 5736 5735 5734 5735 5735 5735 5735 5735 5734 5734 5734 5733 5733 5733 5732 5732 5731 5730 5730 5730 5729 5730 5731 5730 5730 5730 5730
5699 5700 5701 5702 5703 5704 5704 5704 5705 5706 5706 5706 5706 5706 5707 5708 5710 5712 5713 5714 5714 5714 5715 5716 5716 5717 5718 5719 5720 5720 5721 5721 5722 5723 5724 5725 5726 5726 5727 5727 5728 5728 5728 5729 5729 5730 5729 5729 5728 5728 5728 5728 5729 5728 5728 5729 5729 5729 5730 5730 5730 5729 5729 5729 5730 5730 5730 5729 5729 5728 5728 5728 5728 5727 5726 5725 5725 5724 5724 5724 5725 5724 5724 5723 5724
5695 5697 5698 5698 5699 5700 5700 5701 5703 5703 5704 5703 5703 5703 5703 5705 5707 5708 5709 5709 5709 5709 5709 5710 5711 5711 5712 5713 5714 5715 5715 5716 5717 5718 5718 5719 5720 5720 5721 5722 5722 5722 5723 5723 5723 5724 5723 5723 5722 5721 5722 5722 5723 5722 5722 5722 5723 5723 5723 5724 5724 5723 5723 5722 5723 5724 5724 5724 5724 5723 5722 5722 5722 5721 5720 5720 5719 5718 5718 5718 5718 5718 5718 5718 5718
5691 5692 5693 5694 5695 5696 5696 5698 5699 5699 5700 5700 5699 5699 5699 5699 5701 5703 5704 5704 5704 5704 5704 5705 5705 5705 5705 5706 5707 5708 5708 5709 5710 5711 5711 5712 5712 5713 5714 5715 5715 5716 5716 5716 5716 5717 5717 5716 5715 5715 5715 5716 5717 5716 5715 5715 5716 5716 5716 5716 5716 5716 5716 5716 5716 5717 5717 5718 5718 5718 5717 5717 5716 5715 5713 5713 5712 5712 5712 5712 5712 5711 5712 5712 5712
5686 5687 5688 5689 5690 5691 5692 5693 5694 5694 5694 5694 5694 5694 5694 5694 5695 5697 5698 5698 5698 5698 5698 5699 5699 5699 5700 5700 5701 5701 5702 5702 5703 5703 5704 5704 5705 5706 5706 5707 5707 5708 5708 5709 5709 5709 5710 5709 5709 5709 5709 5710 5710 5710 5709 5709 5709 5709 5709 5709 5709 5709 5709 5709 5709 5709 5710 5710 5711 5710 5710 5710 5710 5708 5707 5707 5706 5705 5706 5706 5705 5705 5705 5705 5706
5680 5681 5682 5684 5684 5685 5686 5687 5688 5688 5688 5688 5688 5688 5689 5689 5690 5691 5692 5692 5693 5693 5693 5694 5694 5694 5694 5695 5695 5695 5695 5696 5696 5697 5697 5697 5697 5698 5698 5699 5699 5700 5700 5701 5701 5702 5702 5702 5702 5702 5703 5703 5703 5703 5702 5702 5702 5701 5702 5702 5702 5702 5702 5702 5701 5702 5703 5704 5704 5703 5703 5703 5702 5702 5702 5701 5700 5700 5699 5699 5699 5699 5698 5699 5699
5674 5675 5676 5677 5678 5679 5680 5680 5681 5682 5682 5682 5683 5683 5683 5684 5686 5686 5687 5687 5687 5688 5688 5689 5689 5689 5689 5689 5690 5690 5690 5690 5690 5691 5691 5691 5691 5691 5691 5691 5691 5692 5692 5693 5693 5693 5694 5694 5694 5694 5695 5695 5695 5695 5694 5694 5694 5694 5694 5694 5695 5694 5694 5694 5694 5694 5695 5696 5696 5696 5696 5695 5694 5696 5695 5693 5692 5692 5693 5693 5693 5693 5692 5692 5692
5668 5669 5670 5671 5672 5673 5673 5674 5675 5676 5676 5677 5677 5678 5678 5679 5680 5681 5682 5682 5682 5682 5683 5683 5684 5684 5684 5684 5684 5684 5684 5685 5685 5685 5685 5686 5685 5685 5684 5684 5684 5684 5684 5684 5684 5684 5685 5686 5686 5686 5687 5688 5687 5687 5686 5686 5686 5686 5686 5686 5687 5686 5686 5686 5687 5687 5688 5688 5688 5688 5688 5687 5687 5689 5688 5686 5684 5685 5685 5686 5686 5687 5686 5685 5685
5663 5664 5664 5665 5666 5667 5668 5668 5669 5670 5670 5671 5672 5672 5673 5674 5674 5675 5676 5677 5677 5677 5678 5678 5678 5678 5678 5678 5679 5679 5678 5679 5679 5678 5679 5679 5678 5678 5677 5676 5676 5676 5676 5676 5676 5676 5676 5678 5678 5678 5678 5679 5679 5678 5677 5678 5678 5678 5678 5677 5678 5678 5678 5678 5679 5679 5680 5680 5680 5680 5680 5679 5679 5681 5681 5680 5679 5678 5678 5679 5680 5680 5680 5679 5679
5659 5659 5660 5660 5661 5662 5663 5662 5663 5664 5664 5665 5665 5666 5666 5667 5668 5668 5669 5669 5670 5670 5671 5671 5671 5671 5671 5671 5672 5672 5672 5672 5672 5672 5672 5672 5671 5670 5669 5668 5668 5667 5667 5667 5667 5666 5666 5668 5668 5668 5669 5670 5670 5670 5668 5668 5669 5670 5669 5669 5669 5669 5669 5670 5670 5670 5671 5671 5671 5671 5672 5671 5671 5672 5673 5673 5673 5672 5672 5672 5673 5673 5674 5674 5674
5653 5654 5655 5655 5656 5657 5657 5656 5657 5658 5658 5658 5659 5659 5660 5661 5661 5661 5662 5662 5662 5663 5663 5663 5663 5663 5664 5664 5664 5664 5664 5664 5664 5664 5663 5663 5663 5662 5661 5660 5659 5658 5658 5658 5657 5657 5656 5657 5658 5658 5658 5659 5661 5662 5660 5659 5659 5660 5660 5660 5660 5660 5660 5660 5661 5661 5662 5662 5662 5662 5663 5664 5664 5664 5665 5665 5666 5666 5665 5665 5665 5666 5667 5668 5668
5647 5647 5648 5649 5650 5651 5651 5650 5651 5652 5652 5651 5652 5652 5653 5654 5654 5654 5654 5655 5655 5655 5655 5655 5655 5655 5656 5656 5656 5656 5655 5655 5655 5654 5654 5653 5653 5652 5651 5650 5649 5648 5647 5647 5647 5647 5646 5646 5646 5647 5646 5647 5650 5651 5650 5649 5650 5650 5649 5649 5649 5650 5650 5651 5651 5652 5653 5654 5654 5654 5655 5656 5656 5657 5657 5658 5658 5659 5658 5658 5658 5659 5660 5660 5661
5642 5641 5641 5642 5643 5643 5643 5643 5644 5645 5645 5644 5645 5645 5647 5647 5647 5647 5647 5647 5647 5647 5647 5647 5647 5647 5647 5647 5647 5647 5646 5646 5645 5644 5644 5643 5642 5641 5641 5640 5638 5638 5637 5636 5636 5636 5635 5635 5635 5635 5635 5635 5638 5640 5640 5640 5642 5642 5639 5639 5639 5639 5641 5642 5643 5643 5644 5645 5645 5646 5647 5648 5649 5649 5650 5650 5651 5651 5651 5650 5651 5652 5653 5653 5654
5635 5634 5634 5636 5637 5636 5636 5636 5637 5637 5637 5637 5638 5639 5640 5641 5640 5640 5640 5640 5640 5640 5640 5640 5640 5639 5639 5638 5638 5638 5637 5636 5635 5634 5633 5632 5631 5631 5630 5629 5628 5627 5626 5625 5625 5625 5624 5624 5624 5624 5624 5623 5626 5629 5630 5631 5634 5633 5630 5629 5630 5630 5631 5632 5633 5634 5635 5636 5637 5638 5639 5640 5641 5642 5643 5643 5643 5644 5644 5644 5645 5646 5646 5647 5647
5628 5628 5628 5630 5630 5629 5629 5629 5629 5630 5630 5631 5631 5631 5632 5632 5632 5632 5632 5632 5632 5632 5632 5631 5631 5630 5630 5629 5628 5628 5627 5626 5625 5624 5623 5622 5621 5620 5619 5618 5616 5615 5615 5614 5614 5614 5613 5612 5612 5614 5613 5612 5614 5616 5618 5621 5625 5624 5620 5618 5619 5620 5622 5622 5623 5625 5626 5627 5628 5630 5632 5633 5634 5635 5636 5636 5636 5637 5637 5638 5639 5640 5640 5641 5641
5622 5622 5622 5623 5623 5622 5622 5622 5622 5623 5623 5623 5623 5624 5624 5624 5624 5624 5623 5623 5623 5623 5623 5622 5621 5620 5620 5619 5618 5617 5616 5615 5614 5613 5612 5611 5610 5608 5607 5607 5605 5604 5603 5602 5601 5602 5602 5601 5601 5602 5602 5601 5602 5604 5606 5608 5612 5613 5613 5611 5610 5610 5613 5614 5614 5616 5618 5618 5620 5622 5624 5626 5628 5629 5629 5630 5630 5630 5631 5632 5634 5634 5634 5635 5635
5616 5615 5615 5616 5615 5615 5615 5615 5615 5616 5616 5615 5616 5616 5615 5615 5615 5615 5615 5614 5614 5614 5613 5612 5611 5611 5610 5609 5608 5607 5605 5604 5603 5602 5602 5601 5600 5598 5596 5595 5594 5593 5592 5591 5589 5589 5590 5590 5590 5590 5590 5590 5591 5592 5594 5596 5598 5600 5603 5604 5602 5601 5602 5604 5605 5607 5609 5611 5613 5616 5618 5619 5620 5621 5622 5623 5624 5624 5624 5626 5627 5628 5628 5629 5629